[[{"header":{"parameterUnit":"m.s-1","parameterCategory":1,"la1":30.2991,"la2":30.254,"lo1":-89.0895,"lo2":-89.0444,"dy":0.0017,"dx":0.0017,"nx":28,"ny":28,"refTime":"2025-09-02T09:00:00:Z","depth":0,"parameterNumber":2,"parameterNumberName":"U-component_of_WINDS"},"data":[0,0,0,0,0,0,0,0,0,0,0,0,0,0,0,0,0,0,0,0,0,0,0,0,0,0,0,0,0,0,0,0,0,0,0,0,0,0,0,0,0,0,0,0,0,0,0,0,0,0,0,0,0,0,0,0,0,0,-1.4433,-1.4433,0,-1.4469,-1.447,-1.447,-1.4425,-1.4424,-1.4422,-1.442,-1.4458,-1.4461,-1.4463,0,0,0,0,0,0,0,0,0,0,0,0,0,-1.4325,-1.4327,-1.4433,-1.4433,-1.4434,-1.4469,-1.447,-1.447,-1.4426,-1.4424,-1.4421,-1.442,-1.4458,-1.4461,-1.4464,0,0,0,0,0,0,0,0,0,0,0,0,0,-1.4368,-1.4328,-1.4433,-1.4416,-1.4415,-1.4469,-1.447,-1.447,-1.4426,-1.4423,-1.4421,-1.4419,-1.4457,-1.446,-1.4464,-1.4537,0,0,-1.4476,-1.4477,0,0,0,0,0,0,0,0,-1.4366,-1.4372,-1.4418,-1.4417,-1.4416,-1.444,-1.4446,-1.4493,-1.4427,-1.4422,-1.442,-1.4417,-1.4454,-1.4458,-1.447,-1.4539,-1.4541,-1.4476,-1.4478,-1.448,-1.4481,0,0,0,0,0,0,0,-1.4363,-1.437,-1.4447,-1.4419,-1.4417,-1.4406,-1.441,-1.4454,-1.4452,-1.4422,-1.4419,-1.4424,-1.4453,-1.4467,-1.4471,-1.4541,-1.4476,-1.4479,-1.4482,-1.4483,-1.4671,-1.4673,0,0,0,0,0,0,-1.4362,-1.4368,-1.4446,-1.4448,-1.4384,-1.441,-1.4414,-1.4435,-1.4451,-1.4451,-1.4426,-1.4421,-1.4462,-1.4467,-1.4472,-1.4559,-1.448,-1.4484,-1.4486,-1.4668,-1.4672,-1.4674,0,0,0,0,0,0,-1.4359,-1.4369,-1.4445,-1.4407,-1.4416,-1.4415,-1.4439,-1.4437,-1.445,-1.4454,-1.4453,-1.444,-1.446,-1.4467,-1.4521,-1.4559,-1.4485,-1.4489,-1.4665,-1.4669,-1.4673,-1.4732,0,0,0,0,0,0,-1.4357,-1.4369,-1.4396,-1.4408,-1.4418,-1.4493,-1.4441,-1.4439,-1.4457,-1.4452,-1.4467,-1.4467,-1.4458,-1.4516,-1.4525,-1.4563,-1.4492,-1.4662,-1.4667,-1.4672,-1.4727,-1.4738,-1.4747,0,0,0,0,0,-1.4353,-1.4412,-1.4398,-1.4408,-1.4453,-1.4496,-1.4501,-1.449,-1.446,-1.4488,-1.449,-1.4467,-1.4554,-1.4522,-1.4532,-1.4572,-1.4659,-1.4665,-1.4671,-1.4722,-1.4736,-1.4747,0,0,0,0,0,0,-1.4405,-1.4413,-1.4398,-1.4462,-1.4479,-1.4488,-1.4523,-1.4504,-1.4529,-1.4523,-1.4508,-1.4512,-1.457,-1.4576,-1.454,-1.4643,-1.4602,-1.461,-1.4637,-1.465,-1.466,-1.4657,-1.4495,0,0,0,0,0,-1.4424,-1.4458,-1.4463,-1.4519,-1.4528,-1.4524,-1.4542,-1.4532,-1.4548,-1.4555,-1.4561,-1.4578,-1.4609,-1.4629,-1.4658,-1.4727,-1.473,-1.476,-1.477,-1.4778,-1.4786,-1.4822,-1.4836,-1.4694,-1.4694,-1.4694,0,0,-1.4464,-1.4472,-1.4494,-1.453,-1.4541,-1.4577,-1.453,-1.457,-1.4596,-1.4561,-1.4612,-1.4618,-1.4635,-1.4697,-1.4725,-1.4704,-1.4825,-1.4786,-1.4793,-1.4796,-1.483,-1.4843,-1.4855,-1.4698,-1.4698,-1.4697,0,0,-1.4554,-1.4564,-1.4612,-1.4624,-1.4641,-1.4638,-1.4649,-1.4661,-1.4663,-1.4715,-1.4689,-1.472,-1.4774,-1.4787,-1.4801,-1.4896,-1.4875,-1.4905,-1.4958,-1.4994,-1.5005,-1.5015,-1.5049,-1.5061,-1.4913,-1.4913,-1.4913,0,-1.4601,-1.4653,-1.4639,-1.468,-1.4696,-1.4666,-1.4714,-1.4726,-1.4753,-1.4765,-1.4741,-1.4807,-1.4817,-1.4882,-1.4905,-1.4917,-1.493,-1.4904,-1.5005,-1.5015,-1.5024,-1.5055,-1.5068,-1.4917,-1.4916,-1.4916,-1.4915,0,-1.471,-1.4746,-1.4783,-1.4808,-1.4828,-1.4873,-1.4866,-1.4888,-1.4876,-1.4875,-1.4928,-1.4938,-1.4968,-1.4983,-1.4971,-1.5046,-1.5032,-1.5007,-1.4965,-1.5041,-1.507,-1.5082,-1.4922,-1.492,-1.4919,-1.4918,0,0,-1.4834,-1.4851,-1.4864,-1.4875,-1.4892,-1.492,-1.4963,-1.4992,-1.5011,-1.503,-1.5066,-1.5111,-1.5088,-1.5104,-1.5094,-1.5125,-1.5199,-1.5096,-1.5096,-1.5115,-1.5281,-1.53,-1.5314,-1.5185,-1.5188,-1.5189,-1.528,0,-1.4924,-1.4998,-1.4987,-1.5058,-1.5091,-1.5063,-1.51,-1.5114,-1.5115,-1.5143,-1.5143,-1.5176,-1.5143,-1.5152,-1.5182,-1.5184,-1.5232,-1.5177,-1.5218,-1.522,-1.5215,-1.533,-1.535,-1.5435,-1.5291,-1.5293,-1.5294,0,-1.5039,-1.5062,-1.5137,-1.5147,-1.5161,-1.5195,-1.522,-1.5247,-1.5263,-1.5261,-1.5278,-1.5262,-1.5305,-1.5262,-1.5321,-1.5284,-1.53,-1.5303,-1.5306,-1.531,-1.5262,-1.5336,-1.5462,-1.5474,-1.5313,-1.5311,-1.531,0,-1.5122,-1.5172,-1.5222,-1.5233,-1.5247,-1.5271,-1.5278,-1.5291,-1.5309,-1.5331,-1.5343,-1.537,-1.5385,-1.5406,-1.5397,-1.5367,-1.5458,-1.5414,-1.5457,-1.5458,-1.5478,-1.5477,-1.5607,-1.5488,-1.5488,-1.5488,-1.5488,0,-1.5224,-1.5271,-1.526,-1.5291,-1.5343,-1.5329,-1.538,-1.5384,-1.5395,-1.5427,-1.5404,-1.5434,-1.5421,-1.545,-1.5444,-1.5493,-1.55,-1.55,-1.5498,-1.5502,-1.5502,-1.5512,-1.5506,-1.5491,-1.5491,-1.549,-1.5489,0,-1.5326,-1.532,-1.5374,-1.5382,-1.5386,-1.5423,-1.5431,-1.546,-1.5458,-1.5498,-1.5507,-1.5504,-1.5538,-1.5531,-1.5568,-1.5563,-1.5625,-1.5616,-1.562,-1.5618,-1.5661,-1.5657,-1.5803,-1.5822,-1.5691,-1.5692,-1.5693,0,-1.5392,-1.5427,-1.5439,-1.5458,-1.5467,-1.5498,-1.5516,-1.5504,-1.5523,-1.5543,-1.557,-1.5601,-1.5625,-1.5679,-1.5681,-1.5709,-1.57,-1.5749,-1.5704,-1.5707,-1.5701,-1.5699,-1.5702,-1.5758,-1.576,-1.5761,-1.5762,0,-1.5509,-1.5504,-1.553,-1.5556,-1.5578,-1.5598,-1.5615,-1.5632,-1.5621,-1.5644,-1.5678,-1.5696,-1.5733,-1.5764,-1.579,-1.5797,-1.5778,-1.5776,-1.5787,-1.5792,-1.5793,-1.5793,-1.5645,-1.5773,-1.5772,-1.5771,-1.577,-1.577,-1.5594,-1.5624,-1.5637,-1.5667,-1.5679,-1.5696,-1.5723,-1.5725,-1.5752,-1.5781,-1.5772,-1.581,-1.5824,-1.5856,-1.5866,-1.5896,-1.5877,-1.5894,-1.5898,-1.5903,-1.5908,-1.5788,-1.59,-1.59,-1.59,-1.5899,-1.5899,0,-1.571,-1.5716,-1.5744,-1.5769,-1.5793,-1.5772,-1.579,-1.5811,-1.5845,-1.5859,-1.5883,-1.5921,-1.5951,-1.5955,-1.5983,-1.6006,-1.5998,-1.6014,-1.6012,-1.6014,-1.5923,-1.591,-1.602,-1.602,-1.602,-1.602,-1.602,-1.602,-1.5773,-1.5822,-1.5819,-1.5873,-1.5879,-1.5916,-1.5928,-1.5943,-1.5955,-1.5998,-1.6023,-1.6024,-1.6034,-1.6063,-1.6089,-1.6089,-1.6101,-1.612,-1.6117,-1.6032,-1.602,-1.6009,-1.5997,-1.6123,-1.6123,-1.6206,-1.6207,-1.6207]},{"header":{"parameterUnit":"m.s-1","parameterCategory":1,"la1":30.2991,"la2":30.254,"lo1":-89.0895,"lo2":-89.0444,"dy":0.0017,"dx":0.0017,"nx":28,"ny":28,"refTime":"2025-09-02T09:00:00:Z","depth":0,"parameterNumber":3,"parameterNumberName":"V-component_of_WINDS"},"data":[0,0,0,0,0,0,0,0,0,0,0,0,0,0,0,0,0,0,0,0,0,0,0,0,0,0,0,0,0,0,0,0,0,0,0,0,0,0,0,0,0,0,0,0,0,0,0,0,0,0,0,0,0,0,0,0,0,0,1.0295,1.0295,0,1.027,1.027,1.027,1.0229,1.0228,1.0227,1.0227,1.0202,1.0202,1.0202,0,0,0,0,0,0,0,0,0,0,0,0,0,1.0308,1.0308,1.0295,1.0295,1.0295,1.027,1.027,1.027,1.0229,1.0228,1.0227,1.0226,1.0202,1.0202,1.0202,0,0,0,0,0,0,0,0,0,0,0,0,0,1.0295,1.0308,1.0295,1.0271,1.0269,1.027,1.027,1.027,1.0229,1.0228,1.0227,1.0226,1.0202,1.0202,1.0202,1.0225,0,0,1.0202,1.0202,0,0,0,0,0,0,0,0,1.0296,1.0295,1.0275,1.0273,1.027,1.0251,1.0265,1.0255,1.0229,1.0244,1.0227,1.0225,1.0219,1.0218,1.0216,1.0224,1.0223,1.0202,1.0202,1.0202,1.0202,0,0,0,0,0,0,0,1.0297,1.0295,1.0286,1.0275,1.0272,1.0262,1.0259,1.0263,1.0238,1.0243,1.024,1.0237,1.0218,1.0216,1.0215,1.0222,1.0202,1.0202,1.0202,1.0202,1.0247,1.0248,0,0,0,0,0,0,1.0301,1.0297,1.0286,1.0285,1.0281,1.0263,1.0259,1.0259,1.0238,1.0234,1.0238,1.0236,1.0216,1.0215,1.0214,1.0239,1.0202,1.0202,1.0202,1.0246,1.0247,1.0249,0,0,0,0,0,0,1.0302,1.0301,1.0287,1.029,1.0287,1.0264,1.0264,1.0259,1.0257,1.0235,1.023,1.0241,1.0215,1.0214,1.0222,1.0237,1.0202,1.0202,1.0245,1.0246,1.0248,1.0289,0,0,0,0,0,0,1.0302,1.0301,1.031,1.029,1.0287,1.0296,1.0264,1.0259,1.0257,1.0253,1.0236,1.0232,1.0214,1.0222,1.0222,1.0237,1.0202,1.0243,1.0245,1.0247,1.0286,1.0292,1.0297,0,0,0,0,0,1.0303,1.0322,1.031,1.0309,1.0297,1.0297,1.0295,1.0274,1.0258,1.0266,1.0252,1.0233,1.0236,1.0223,1.0223,1.0238,1.0242,1.0245,1.0247,1.0284,1.0291,1.0297,0,0,0,0,0,0,1.0344,1.032,1.0306,1.032,1.0311,1.029,1.03,1.0282,1.0278,1.0275,1.0249,1.0245,1.0257,1.0248,1.0235,1.0259,1.0236,1.0238,1.0264,1.027,1.0276,1.0277,1.0202,0,0,0,0,0,1.0355,1.0357,1.0335,1.035,1.0346,1.0324,1.0323,1.0307,1.0297,1.0293,1.028,1.0271,1.027,1.027,1.0268,1.0285,1.0281,1.0295,1.03,1.0305,1.0307,1.0315,1.0321,1.0257,1.0257,1.0257,0,0,1.0378,1.0364,1.0367,1.0358,1.0349,1.0351,1.0321,1.0325,1.0326,1.0294,1.0301,1.0291,1.0279,1.0292,1.0297,1.0285,1.0324,1.0308,1.0312,1.0312,1.0319,1.0325,1.033,1.0259,1.0259,1.0258,0,0,1.0419,1.041,1.042,1.0412,1.0399,1.0384,1.0387,1.0369,1.0361,1.0367,1.0343,1.0345,1.0343,1.0336,1.0332,1.0371,1.0352,1.0371,1.0398,1.0407,1.0412,1.0416,1.0429,1.0434,1.0373,1.0373,1.0373,0,1.0449,1.0451,1.0428,1.0433,1.043,1.04,1.0411,1.0404,1.0391,1.039,1.0376,1.0374,1.0364,1.0374,1.0384,1.0382,1.0384,1.0372,1.0413,1.0417,1.0421,1.0433,1.0438,1.0376,1.0375,1.0375,1.0375,0,1.0487,1.049,1.05,1.0488,1.0485,1.0493,1.0471,1.0472,1.0457,1.0443,1.045,1.0437,1.0432,1.0433,1.0418,1.0442,1.0434,1.0417,1.0394,1.0429,1.044,1.0445,1.0379,1.0378,1.0378,1.0377,0,0,1.0554,1.0529,1.0533,1.0527,1.0511,1.0512,1.0519,1.0513,1.0514,1.0506,1.0511,1.051,1.0494,1.049,1.0474,1.0481,1.0512,1.0463,1.0462,1.0472,1.0536,1.0548,1.0554,1.0499,1.05,1.0501,1.0536,0,1.0592,1.0602,1.0581,1.0595,1.0597,1.0569,1.0575,1.0565,1.0553,1.0552,1.0539,1.0539,1.0518,1.0515,1.0521,1.0507,1.0524,1.0504,1.0503,1.0503,1.0506,1.056,1.0573,1.0607,1.0541,1.0541,1.0542,0,1.0637,1.0632,1.0646,1.0628,1.0628,1.0634,1.0626,1.0626,1.0615,1.0606,1.0601,1.0582,1.0587,1.0565,1.0571,1.0558,1.0556,1.055,1.055,1.0549,1.0524,1.0559,1.0617,1.0622,1.0549,1.0548,1.0547,0,1.0684,1.068,1.0688,1.0684,1.0663,1.0668,1.066,1.0647,1.0645,1.0639,1.0637,1.0632,1.0629,1.0625,1.0605,1.0591,1.0614,1.059,1.0606,1.0606,1.0611,1.0611,1.067,1.0612,1.0612,1.0612,1.0611,0,1.0728,1.0738,1.0708,1.0713,1.0723,1.07,1.0711,1.07,1.0689,1.0691,1.0667,1.0669,1.0643,1.0643,1.0628,1.0635,1.0634,1.0626,1.0622,1.0628,1.0629,1.0626,1.0623,1.0613,1.0613,1.0612,1.0612,0,1.0782,1.0762,1.0769,1.0749,1.0744,1.0753,1.0736,1.0739,1.0726,1.0729,1.0728,1.0706,1.0705,1.0685,1.0679,1.0669,1.0682,1.0673,1.0685,1.0682,1.0699,1.0698,1.0757,1.0764,1.0702,1.0703,1.0704,0,1.0811,1.0817,1.0798,1.0798,1.0791,1.0791,1.0788,1.0765,1.0763,1.0751,1.0756,1.0752,1.0748,1.0747,1.073,1.0726,1.0717,1.0738,1.0716,1.0721,1.0716,1.0716,1.0716,1.0742,1.0743,1.0744,1.0744,0,1.0864,1.0854,1.0851,1.0845,1.0843,1.0837,1.0829,1.083,1.0805,1.0804,1.0802,1.0799,1.0793,1.0789,1.0781,1.0773,1.0754,1.0752,1.0755,1.0761,1.0767,1.0763,1.0698,1.075,1.075,1.0749,1.0749,1.0749,1.0906,1.091,1.0897,1.0895,1.0887,1.088,1.0883,1.0869,1.0867,1.086,1.0846,1.0846,1.0834,1.0822,1.0815,1.0814,1.0803,1.0808,1.0809,1.0811,1.0814,1.0768,1.0813,1.0813,1.0813,1.0812,1.0812,0,1.0957,1.0948,1.0946,1.0936,1.0934,1.0916,1.0907,1.0907,1.0907,1.0897,1.0893,1.0891,1.0887,1.0871,1.0865,1.0868,1.0859,1.0867,1.0866,1.0865,1.0824,1.0822,1.0874,1.0874,1.0874,1.0874,1.0874,1.0874,1.0984,1.099,1.0979,1.0981,1.0971,1.0971,1.0967,1.0961,1.0953,1.0951,1.0948,1.0937,1.0925,1.0918,1.0914,1.0909,1.0908,1.0919,1.0911,1.0874,1.0868,1.0862,1.0859,1.0919,1.0919,1.0951,1.0951,1.0952]}]]